Weather History for KMHT - March, 2013

Change the Weather History Date:

Sunday, March 17, 2013

  Actual Average Record
Temperature  
Mean Temperature 28 °F -  
Max Temperature 35 °F 45 °F 66 °F (2003)
Min Temperature 21 °F 28 °F -7 °F (1967)
Degree Days  
Heating Degree Days 37    
Cooling Degree Days 0    
Moisture  
Dew Point 6 °F    
Average Humidity 41    
Maximum Humidity 68    
Minimum Humidity 24    
Precipitation  
Precipitation 0.00 in 0.15 in 2.00 in (1974)
Month to date precipitation 1.90  
Year to date precipitation 7.70  
Sea Level Pressure  
Sea Level Pressure 30.10 in    
Wind  
Wind Speed 6 mph (NW)    
Max Wind Speed 22 mph    
Max Gust Speed 29 mph    
Visibility 10 miles    
Events      
T = Trace of Precipitation, MM = Missing Value Source: NWS Daily Summary

Daily Weather History Graph

Daily Weather History Graph

Search for Another Location

Airport or City:

Trip Planner

Search our weather history database for the weather conditions in past years. The results will help you decide how hot, cold, wet, or windy it might be!

Date:

Astronomy

Mar. 17, 2013 Rise Set
Actual Time 6:53 AM EDT 6:54 PM EDT
Civil Twilight 6:25 AM EDT 7:23 PM EDT
Nautical Twilight 5:52 AM EDT 7:56 PM EDT
Astronomical Twilight 5:19 AM EDT 8:29 PM EDT
Moon 9:56 AM EDT (3/17) 12:07 AM EDT (3/17)
Length of Visible Light 12h 57m
Length of Day
12h 00m
Waxing Crescent, 31% of the Moon is Illuminated
Mar 17
Waxing Crescent
Mar 19
First Quarter
Mar 27
Full
Apr 3
Last Quarter
Apr 10
New

Hourly Weather History & Observations

Time (EDT) Temp. Windchill Dew Point Humidity Pressure Visibility Wind Dir Wind Speed Gust Speed Precip Events Conditions
12:53 AM 28.9 °F - 10.0 °F 45% 29.92 in 10.0 mi Calm Calm - N/A   Clear
1:53 AM 27.0 °F - 12.0 °F 53% 29.94 in 10.0 mi Calm Calm - N/A   Clear
2:53 AM 25.0 °F - 12.9 °F 60% 29.94 in 10.0 mi Calm Calm - N/A   Clear
3:53 AM 24.1 °F - 14.0 °F 65% 29.95 in 10.0 mi Calm Calm - N/A   Clear
4:53 AM 24.1 °F - 12.0 °F 60% 29.96 in 10.0 mi Calm Calm - N/A   Clear
5:53 AM 23.0 °F - 14.0 °F 68% 29.98 in 10.0 mi Calm Calm - N/A   Partly Cloudy
6:53 AM 21.9 °F - 12.9 °F 68% 29.98 in 10.0 mi Calm Calm - N/A   Clear
7:53 AM 25.0 °F 15.5 °F 10.9 °F 55% 30.04 in 10.0 mi NW 9.2 mph - N/A   Clear
8:53 AM 27.0 °F 20.5 °F 8.1 °F 45% 30.06 in 10.0 mi WNW 5.8 mph - N/A   Clear
9:53 AM 28.9 °F 18.2 °F 7.0 °F 40% 30.05 in 10.0 mi NW 13.8 mph 23.0 mph N/A   Clear
10:53 AM 30.0 °F 17.9 °F 7.0 °F 38% 30.08 in 10.0 mi WNW 18.4 mph 24.2 mph N/A   Mostly Cloudy
11:53 AM 32.0 °F 22.1 °F 6.1 °F 34% 30.09 in 10.0 mi NW 13.8 mph 20.7 mph N/A   Partly Cloudy
12:53 PM 33.1 °F 22.2 °F 3.0 °F 28% 30.09 in 10.0 mi WNW 17.3 mph 24.2 mph N/A   Mostly Cloudy
1:53 PM 34.0 °F 22.1 °F -0.0 °F 24% 30.09 in 10.0 mi NNW 21.9 mph 28.8 mph N/A   Mostly Cloudy
2:53 PM 33.1 °F 23.4 °F -0.0 °F 24% 30.09 in 10.0 mi NW 13.8 mph 24.2 mph N/A   Clear
3:53 PM 35.1 °F 27.4 °F 1.0 °F 24% 30.11 in 10.0 mi NW 10.4 mph 24.2 mph N/A   Clear
4:53 PM 33.1 °F 23.4 °F 1.9 °F 27% 30.13 in 10.0 mi WNW 13.8 mph 25.3 mph N/A   Clear
5:53 PM 33.1 °F 23.4 °F 1.0 °F 26% 30.16 in 10.0 mi NW 13.8 mph 21.9 mph N/A   Clear
6:53 PM 30.9 °F 21.2 °F 1.0 °F 28% 30.19 in 10.0 mi NW 12.7 mph 19.6 mph N/A   Clear
7:53 PM 30.0 °F 21.7 °F 3.0 °F 32% 30.24 in 10.0 mi NNW 9.2 mph - N/A   Clear
8:53 PM 28.0 °F 17.5 °F 1.0 °F 31% 30.29 in 10.0 mi NNW 12.7 mph - N/A   Clear
9:53 PM 26.1 °F 17.6 °F -0.0 °F 32% 30.31 in 10.0 mi NNW 8.1 mph - N/A   Clear
10:53 PM 24.1 °F 14.4 °F -0.9 °F 34% 30.35 in 10.0 mi NNW 9.2 mph 16.1 mph N/A   Clear
11:53 PM 23.0 °F 12.4 °F -2.0 °F 34% 30.36 in 10.0 mi NNW 10.4 mph 21.9 mph N/A   Clear